CAPSTONE & PHOTON R/B (52914 NORAD) Tracking and Keplerian Element Data

This shows tracking and keplerian element data for the satellite.

Feedback or suggestion? Click here.




ElementValue
Catalog52914
NameCAPSTONE & PHOTON R/B
Epoch Orbit39
Epoch Day184.14236111
Epoch Year2022
RAAN321.8334
Inclination39.0806
Eccentricity0.840541
Argument of Perigee344.499
Mean Anonmoly285.0037
Mean Motion1.02266752
Decay Rate-3.75E-06
L11 52914U 22070A 22184.14236111 -.00000375 00000+0 00000+0 0 9992
L22 52914 39.0806 321.8334 8405410 344.4990 285.0037 1.02266752 396

Live tracking and technical data element details for CAPSTONE & PHOTON R/B (NORAD 52914). CAPSTONE & PHOTON R/B can be tracked NOW for your location showing map with azimuth and elevation plus other details from your city location.

Track the satellite on the map from your city or location and see movement details for azimuth, elevation, latitude, longitude, range, height, and movement on the map or in text.







IsCatalogInMostPopularTable: catalog: 52914, numindb: 11
Update: records affected: 1



GetName: 52914 CAPSTONE & PHOTON R/B

Hit Count: updated at: Sun, 25 Sep 2022 07:37:17 GMT